Theta_e
299 297 298 302 314 313 318 319 311 309 314 316 317 325 325 334 345 348 349 351 358 364 364 364 363 362 361 360 361 361 361 362
297 295 301 308 314 317 318 318 315 311 310 320 324 323 326 338 344 345 348 350 360 363 363 363 363 362 361 361 361 362 362 361
296 298 303 306 315 317 315 315 316 316 310 315 321 323 322 336 339 343 345 351 357 362 363 364 364 363 362 361 361 361 362 362
292 298 304 306 312 317 315 315 316 315 314 314 320 320 319 325 335 339 343 351 354 361 362 362 363 362 362 361 361 361 361 361
298 299 302 306 308 309 314 313 312 316 313 317 317 319 320 320 336 339 345 350 351 355 361 362 361 361 361 360 361 361 360 360
298 298 300 308 308 308 311 311 315 316 311 309 317 319 320 320 324 344 348 349 348 351 355 355 357 361 360 360 360 360 360 360
297 299 301 307 304 308 312 309 312 315 314 318 322 319 318 318 317 343 350 347 346 348 349 351 353 357 359 361 360 360 360 359
301 304 302 304 305 306 308 307 308 311 315 317 320 317 316 315 314 323 346 346 344 344 346 346 353 353 350 355 354 353 353 353
302 305 306 305 305 308 305 305 308 308 312 316 318 317 316 315 315 317 328 345 343 343 345 344 345 350 348 348 347 346 347 349
303 306 305 304 305 304 304 306 313 313 315 316 315 313 314 314 315 316 329 336 340 343 343 342 346 348 346 346 345 344 343 346
303 302 302 304 302 302 303 308 316 315 315 314 312 313 316 314 317 327 326 331 341 345 344 349 348 349 345 340 344 344 344 345
300 299 300 300 301 302 304 307 309 313 312 312 311 312 313 317 313 322 325 326 336 341 346 346 346 351 350 348 341 343 345 345
299 299 298 302 298 299 304 306 305 306 308 312 312 312 311 317 314 320 324 327 334 341 345 345 346 350 348 347 347 345 344 345
295 300 301 298 293 301 304 304 304 305 306 307 310 311 311 314 316 321 324 325 326 338 342 344 345 345 346 346 342 342 342 347
293 299 299 297 294 301 304 303 302 303 305 306 306 308 310 312 312 321 325 325 324 328 341 342 344 346 344 346 346 342 340 341
291 296 298 295 295 298 301 301 301 301 303 305 306 307 311 313 319 321 321 323 324 330 337 340 344 346 346 345 342 342 342 340
295 299 295 294 294 296 300 299 298 299 300 303 305 308 311 316 317 319 322 323 322 323 326 335 338 339 336 342 343 343 345 344
295 298 295 293 293 296 298 298 299 300 301 301 304 306 311 313 314 316 318 319 321 326 327 328 326 327 331 334 336 341 344 344
291 295 296 293 291 294 298 300 301 302 303 303 302 305 308 311 313 316 316 316 317 317 320 323 326 323 323 323 325 326 328 332
294 290 283 292 283 291 294 297 299 301 302 303 304 305 307 310 312 314 315 315 316 318 317 317 322 323 321 320 318 320 323 327
Wind_Speed
2 4 5 5 10 8 13 13 10 6 5 7 8 7 4 6 19 17 13 14 14 13 14 17 19 19 15 12 14 14 14 13
1 8 11 9 10 6 7 12 12 6 4 8 6 4 6 8 19 16 15 14 17 15 12 15 17 17 16 13 12 13 13 12
3 8 11 8 7 9 5 13 7 15 7 7 5 8 7 6 6 17 15 13 17 18 14 12 18 19 18 17 12 12 12 11
4 8 12 10 8 11 8 22 9 8 13 5 5 8 6 6 4 11 17 15 16 22 15 12 13 18 18 17 16 13 12 11
8 12 16 16 6 6 21 16 9 3 5 6 8 7 9 10 4 10 17 14 13 16 16 15 12 16 19 18 17 14 12 11
11 12 16 17 8 5 8 12 6 4 2 1 3 7 10 10 9 15 16 11 13 13 14 10 9 13 17 18 17 18 15 12
11 15 17 15 9 5 8 7 4 4 3 7 7 6 11 8 8 13 11 9 12 14 13 11 9 8 12 16 16 15 14 14
10 15 14 11 9 7 4 10 7 4 5 8 6 7 9 7 8 5 11 7 7 14 14 14 10 9 5 8 6 6 7 9
13 15 14 11 15 9 7 8 9 13 8 3 8 5 5 7 6 6 4 11 12 11 16 13 10 8 5 4 4 4 7 7
17 20 17 13 9 11 7 5 7 9 6 5 3 6 2 6 7 5 8 7 9 10 11 12 7 9 10 7 7 5 5 8
15 12 12 10 9 9 15 6 1 11 9 7 5 3 4 5 7 7 10 8 6 8 7 7 9 4 6 5 6 8 8 7
8 7 5 5 9 8 17 8 6 6 7 9 9 9 5 5 5 7 9 8 3 7 7 6 6 7 5 6 6 7 8 9
9 7 7 6 13 18 9 10 11 8 9 9 11 10 9 9 9 8 8 8 8 7 5 4 6 4 3 5 5 4 5 10
7 9 14 8 20 19 11 9 12 11 12 9 11 10 8 8 5 2 5 11 8 6 9 9 5 3 3 1 3 2 3 5
16 15 16 12 22 21 14 8 9 9 13 11 9 8 8 8 7 7 6 8 8 4 8 7 8 6 3 2 1 2 4 1
9 6 9 10 13 10 8 6 8 8 6 4 6 8 9 8 8 8 6 5 3 2 2 7 4 5 4 3 3 2 3 5
9 10 10 13 11 8 7 4 7 8 5 9 9 9 10 11 10 10 8 5 3 3 1 3 2 2 8 8 5 3 4 7
9 11 12 12 12 9 8 5 5 7 10 9 9 8 10 13 11 9 10 9 6 4 2 1 1 2 4 3 6 6 3 6
9 15 12 8 13 13 8 8 9 14 13 14 11 11 12 14 14 11 9 8 8 7 5 3 2 2 2 4 3 6 4 2
12 7 4 5 13 15 9 15 18 19 17 20 21 10 11 13 8 10 8 8 8 7 6 3 1 2 4 2 3 5 6 3
Wind_Direction
149 190 224 256 276 316 324 327 334 350 33 100 127 62 103 124 144 141 147 152 150 156 154 149 142 140 140 141 138 138 135 136
133 265 262 250 284 300 305 313 332 339 40 72 92 109 134 121 137 146 154 155 148 147 153 153 142 137 137 134 138 136 135 139
285 264 276 273 230 264 252 287 321 345 32 82 50 53 54 118 115 155 160 151 149 144 148 158 146 141 140 138 137 137 139 144
269 281 282 280 213 165 288 274 306 321 46 69 74 49 348 62 137 126 159 153 153 140 142 148 155 142 139 139 139 139 141 146
251 258 277 276 282 232 197 239 286 317 322 152 54 29 355 21 185 103 147 148 149 143 140 143 152 146 141 141 140 139 145 151
254 262 269 272 275 183 162 206 241 79 294 189 202 81 18 24 360 115 131 149 146 144 135 130 137 154 146 146 147 149 153 155
249 258 267 275 283 222 183 180 203 233 176 276 136 52 62 13 4 100 117 144 149 142 138 135 130 154 149 148 150 153 155 157
246 262 268 274 288 281 177 209 211 222 270 275 348 90 89 39 12 59 137 141 182 152 150 149 153 142 150 151 154 156 160 164
260 260 267 284 302 296 313 224 174 194 198 227 46 50 102 82 69 323 121 166 178 170 156 160 152 151 158 164 161 176 172 174
247 259 271 277 298 305 313 275 218 176 150 106 32 85 302 108 99 51 39 50 145 165 161 165 135 160 168 172 176 182 190 178
244 250 247 282 277 282 284 318 283 146 178 171 175 195 212 160 108 84 78 55 82 145 152 133 120 142 153 173 193 179 185 184
300 301 305 318 303 309 276 303 289 236 190 179 189 214 158 210 176 136 112 108 86 154 152 148 125 154 157 136 190 184 186 190
298 293 284 316 294 270 262 290 282 272 217 225 209 203 196 189 201 183 146 132 141 152 128 118 107 99 137 151 117 167 199 189
279 284 268 198 252 254 253 237 260 269 274 262 218 202 150 126 131 249 173 152 167 170 147 137 109 150 99 10 125 188 179 169
268 238 240 213 238 242 226 230 245 238 244 247 221 184 169 151 148 166 188 156 167 165 159 162 152 148 148 207 150 229 257 167
257 293 334 317 305 216 195 234 254 264 277 248 153 184 177 148 126 134 133 120 106 54 347 172 165 139 106 353 188 297 275 243
310 325 336 304 295 295 269 240 274 288 279 271 225 194 172 148 134 124 104 100 121 169 50 41 127 217 175 129 290 181 256 252
310 315 299 296 294 288 274 238 242 255 277 248 256 243 159 152 152 151 147 131 90 77 17 19 46 1 357 214 120 304 180 246
266 270 272 294 290 294 276 271 274 270 250 249 216 218 176 168 164 146 138 136 130 118 89 2 263 339 3 48 343 152 259 233
294 333 278 5 300 289 289 295 290 275 275 244 240 203 177 165 129 131 140 131 126 130 128 160 2 196 194 229 244 290 168 174